Location: Sihaung
(22.8641°N, 94.0549°E)
Time: 02:06:58
(UTC+00:00)

SWIFT - Pass Details

Date: 03 March 2021
Orbit: 544 x 559 km, 20.6° (Epoch: 13 April)

Event Time Altitude Azimuth Distance (km) Brightness Sun altitude
Rises 13:31:31 0° 264° (W) 2,686 7.2 -24.6°
Reaches altitude 10° 13:33:49 10° 261° (W) 1,793 5.9 -25.1°
Enters shadow 13:37:01 48° 236° (SW) 707 3.1 -25.9°
